Weather History for Livingston, MT

Change the Weather History Date:

Wednesday, January 23, 2013

  Actual Average Record
Temperature  
Mean Temperature 39 °F 27 °F  
Max Temperature 48 °F 37 °F 64 °F (1981)
Min Temperature 30 °F 18 °F -26 °F (1963)
Degree Days  
Heating Degree Days 26 38  
Month to date heating degree days 878  
Since 1 July heating degree days 4043  
Moisture  
Dew Point 10 °F    
Average Humidity 27    
Maximum Humidity 54    
Minimum Humidity 18    
Precipitation  
Precipitation 0.00 in 0.02 in 1.02 in (1989)
Month to date precipitation 0.37  
Year to date precipitation 0.37  
Sea Level Pressure  
Sea Level Pressure 29.98 in    
Wind  
Wind Speed 24 mph (South)    
Max Wind Speed 45 mph    
Max Gust Speed 58 mph    
Visibility 10 miles    
Events      
T = Trace of Precipitation, MM = Missing Value Source: NWS Daily Summary

Daily Weather History Graph

Daily Weather History Graph

Search for Another Location

Airport:

Trip Planner

Search our weather history database for the weather conditions in past years. The results will help you decide how hot, cold, wet, or windy it might be!

Date:

Astronomy

Jan. 23, 2013 Rise Set
Actual Time 7:52 AM MST 5:15 PM MST
Civil Twilight 7:19 AM MST 5:48 PM MST
Nautical Twilight 6:43 AM MST 6:24 PM MST
Astronomical Twilight 6:08 AM MST 6:59 PM MST
Moon 2:26 PM MST (1/23) 5:09 AM MST (1/23)
Length of Visible Light 10h 28m
Length of Day
9h 23m
Waxing Gibbous, 89% of the Moon is Illuminated
Jan 23
Waxing Gibbous
Jan 26
Full
Feb 3
Last Quarter
Feb 10
New
Feb 17
First Quarter

Hourly Weather History & Observations

Time (MST) Temp. Windchill Dew Point Humidity Pressure Visibility Wind Dir Wind Speed Gust Speed Precip Events Conditions
12:53 AM 45.0 °F 35.2 °F 6.1 °F 20% 30.02 in 10.0 mi West 29.9 mph 42.6 mph N/A   Clear
1:53 AM 45.0 °F 34.7 °F 7.0 °F 21% 30.01 in 10.0 mi WSW 33.4 mph 47.2 mph N/A   Clear
2:53 AM 45.0 °F 34.9 °F 6.1 °F 20% 30.00 in 10.0 mi SW 32.2 mph 54.1 mph N/A   Clear
3:53 AM 45.0 °F 34.4 °F 7.0 °F 21% 30.00 in 10.0 mi WSW 35.7 mph 46.0 mph N/A   Clear
4:53 AM 45.0 °F 34.4 °F 5.0 °F 19% 30.00 in 10.0 mi SW 35.7 mph 50.6 mph N/A   Clear
5:53 AM 45.0 °F 35.8 °F 5.0 °F 19% 30.03 in 10.0 mi WSW 26.5 mph 42.6 mph N/A   Clear
6:53 AM 45.0 °F 35.1 °F 3.9 °F 18% 30.02 in 10.0 mi SW 31.1 mph 40.3 mph N/A   Clear
7:53 AM 44.1 °F 35.4 °F 5.0 °F 20% 30.03 in 10.0 mi WSW 21.9 mph 31.1 mph N/A   Clear
8:53 AM 39.0 °F 35.7 °F 8.1 °F 28% 30.06 in 10.0 mi Variable 4.6 mph - N/A   Clear
9:53 AM 44.1 °F 42.5 °F 9.0 °F 24% 30.04 in 10.0 mi ESE 3.5 mph - N/A   Clear
10:53 AM 45.0 °F 42.6 °F 10.0 °F 24% 30.04 in 10.0 mi East 4.6 mph - N/A   Clear
11:53 AM 44.1 °F 39.5 °F 12.9 °F 28% 30.03 in 10.0 mi ESE 8.1 mph - N/A   Clear
12:53 PM 44.1 °F 41.5 °F 16.0 °F 32% 30.00 in 10.0 mi East 4.6 mph - N/A   Clear
1:53 PM 44.1 °F 40.1 °F 16.0 °F 32% 29.99 in 10.0 mi East 6.9 mph - N/A   Clear
2:53 PM 42.1 °F 36.6 °F 16.0 °F 35% 29.97 in 10.0 mi East 9.2 mph - N/A   Clear
3:53 PM 39.9 °F 33.9 °F 16.0 °F 38% 29.99 in 10.0 mi East 9.2 mph - N/A   Clear
4:53 PM 36.0 °F 29.0 °F 17.1 °F 46% 29.99 in 10.0 mi East 9.2 mph - N/A   Clear
5:53 PM 34.0 °F 25.5 °F 16.0 °F 48% 29.99 in 10.0 mi East 11.5 mph - N/A   Clear
6:53 PM 30.9 °F 26.2 °F 16.0 °F 54% 29.97 in 10.0 mi Variable 4.6 mph - N/A   Clear
7:18 PM 48.2 °F - 10.4 °F 22% 29.91 in 10.0 mi SSW 32.2 mph 42.6 mph N/A   Clear
7:53 PM 48.9 °F - 10.0 °F 21% 29.87 in 10.0 mi SSW 39.1 mph 54.1 mph N/A   Clear
8:53 PM 48.0 °F - 9.0 °F 21% 29.87 in 10.0 mi SSW 44.9 mph 57.5 mph N/A   Clear
10:53 PM 46.0 °F 35.5 °F 10.9 °F 24% 29.85 in 10.0 mi SW 39.1 mph 51.8 mph N/A   Scattered Clouds
11:53 PM 46.0 °F 35.3 °F 10.9 °F 24% 29.85 in 10.0 mi SW 40.3 mph 51.8 mph N/A   Mostly Cloudy